Regional Weather Roundup
Issued by NWS Burlington, VT

Home | Current Version | Previous Version | Text Only | Print | Product List | Glossary On
Versions: 1 2 3 4 5 6 7 8 9 10 11 12 13 14 15 16 17 18 19 20 21 22 23 24 25 26 27 28 29 30 31 32 33 34 35 36 37 38 39 40 41 42 43 44 45 46 47 48 49 50
000
ASUS41 KBTV 251530
RWRBTV
VERMONT REGIONAL WEATHER ROUNDUP
NATIONAL WEATHER SERVICE BURLINGTON VT
1100 AM EDT MON MAY 25 2015

NOTE: "FAIR" INDICATES FEW OR NO CLOUDS BELOW 12,000 FEET WITH NO
SIGNIFICANT WEATHER AND/OR OBSTRUCTIONS TO VISIBILITY.

* THESE REPORTS ARE NOT UNDER NWS QUALITY CONTROL AND/OR DO NOT
  REPORT WEATHER SUCH AS PRECIPITATION AND FOG.

VTZ001>019-251600-
_____VERMONT_____


CITY           SKY/WX    TMP DP  RH WIND       PRES   REMARKS
BURLINGTON     NOT AVBL
MONTPELIER     CLOUDY    70  49  47 SW6       30.25S
MORRISVILLE    CLOUDY    71  48  43 VRB5      30.21R
ST. JOHNSBURY*   N/A     69  48  47 MISG      30.18S
LYNDONVILLE*   PTSUNNY   67  47  49 CALM      30.22F
MIDDLEBURY*    DRIZZLE   65  54  65 CALM      30.21F
RUTLAND*       CLOUDY    66  46  48 SW3       30.23F
SPRINGFIELD    CLOUDY    62  52  69 CALM      30.25S
HIGHGATE*      LGT RAIN  66  52  60 S6        30.17S
NEWPORT*         N/A     68  49  50 SW9G18    30.18F
BENNINGTON     CLOUDY    70  55  59 CALM      30.23F
SUTTON*          N/A     68 N/A N/A MISG        N/A
GALLUP MILLS*    N/A     70 N/A N/A MISG        N/A
MT. MANSFIELD*   N/A     54 N/A N/A CALM        N/A

_____LAKE CHAMPLAIN_____


CITY           SKY/WX    TMP DP  RH WIND       PRES   REMARKS
BURTON ISLAND*   N/A     59  50  72 S12         N/A
COLCHESTER RF*   N/A     57  48  72 S15         N/A
DIAMOND ISL*     N/A     59  50  72 W6          N/A

$$

NYZ007-026>031-035-052-083-251600-
_____NORTHERN NEW YORK_____


CITY           SKY/WX    TMP DP  RH WIND       PRES   REMARKS
PLATTSBURGH    LGT RAIN  60  51  72 SE7       30.18R
SARANAC LAKE   CLOUDY    61  51  70 SW9       30.19F
MASSENA        CLOUDY    67  57  70 SW10      30.16F
OGDENSBURG*    LGT RAIN  63  61  94 S3        30.14F
POTSDAM*       DRIZZLE   64  61  88 SW5       30.16F
STARK FALLS*     N/A     63 N/A N/A S8          N/A
WATERTOWN      CLOUDY    68  60  75 E3        30.12F
FT DRUM        CLOUDY    62  58  87 SE10      30.14F
ALBANY         CLOUDY    69  50  50 S10       30.21F
GLENS FALLS    CLOUDY    63  51  65 SW3       30.22F

$$
NHZ002-005-011-251600-
_____NEW HAMPSHIRE_____


CITY           SKY/WX    TMP DP  RH WIND       PRES   REMARKS
LEBANON        LGT RAIN  65  56  72 VRB3      30.23R
KEENE          CLOUDY   N/A N/A N/A NW3       30.25F
MT WASHINGTON  PTSUNNY   45  37  76 W38         N/A
PLYMOUTH       PTSUNNY   72  56  57 CALM      30.21S
WHITEFIELD     CLOUDY    70  48  45 W5        30.21S

$$

_____REGIONAL QUEBEC LOCATIONS_____


CITY           SKY/WX    TMP DP  RH WIND       PRES   REMARKS
MONTREAL       LGT RAIN  68  54  60 SW14      30.13S
QUEBEC CITY    CLOUDY    70  52  52 W14       30.06R
SHERBROOKE     CLOUDY    64  48  55 SW3       30.15S

_____REGIONAL ONTARIO LOCATIONS_____


CITY           SKY/WX    TMP DP  RH WIND       PRES   REMARKS
OTTAWA         LGT RAIN  61  59  94 SW8       30.13F

______KEY______
VSB  - VISIBILITY IN MILES
WCI  - WIND CHILL INDEX
HX   - HEAT INDEX
$$
NNNN



USA.gov is the U.S. government's official web portal to all federal, state and local government web resources and services.